Volver al catálogo

KORSAT-1

ActivoComunicacionesVLEO
NORAD 59452·PAYLOAD·🇰🇷 South Korea

Lanzado Apr 7, 2024 desde Cape Canaveral Space Force Station

Loading…

Próximos Pases (próximas 24 horas)

TLE

ActualizadoSource: Space-Track

Época: Sep 14, 2026, 21:48 UTC

1 59452U 24066L   26257.90848296  .00002785  00000-0  24765-3 0  9990
2 59452  45.4107 139.3950 0005944 194.1037 165.9676 14.98581301133518

Sigue KORSAT-1 en tiempo real con AllMySat

Download on the App Store